Погода в Матуре

Россия / Республика Хакасия     52°39′21″N   89°27′29″E
темп.,
°C
ветер,
м/с
пор.,
м/с
влажн.,
%
обл.,
%
осадки,
мм/ч
давл.,
гПа
погр.,
м
8 марта, пн
пн801:00−8юз229268 0.0 102430
04:00−10ссз119274 0.0 102321
07:00−9с009286 0.0 102321
10:00−4всв118892 0.0 1020137
13:00−1всв119481 0.0 1016259
16:000в119886 0.0 1013192
19:00−3юз119993 0.0 101422
22:00−1ююз2299100 0.4 101558
9 марта, вт
вт901:00−1з61492100 2.2 10161109
04:00−2зюз4139699 0.9 10181017
07:00−2зюз3109698 2.0 1021708
10:00−3зюз7148786 0.5 10241131
13:00−3з6128290 0.7 10251142
16:00−2з488299 0.1 1025904
19:00−6зюз129089 0.1 102621
22:00−8з1192100 0.0 102721
10 марта, ср
ср1001:00−8зсз1190100 0.0 102521
04:00−10зюз11897 0.0 102521
07:00−10зюз118931 0.0 102421
10:00−4св00861 0.0 1022139
13:000в01973 0.0 1018249
16:00+1вюв11966 0.0 1017232
19:00−4св119526 0.0 101621
22:00−7всв119661 0.0 101721
11 марта, чт
чт1101:00−6ссв019779 0.0 101522
04:00−8св019298 0.0 101321
07:00−8з018298 0.0 101321
10:000зюз3117957 0.0 1012689
13:00+2зюз379274 0.0 1011864
16:00+1з378997 0.1 1011749
19:00−1зюз499799 0.9 1014547
22:00−4зюз61291100 1.9 1020818
12 марта, пт
пт1201:00−6зюз51186100 2.2 10231154
04:00−9юз279182 0.0 1025200
07:00−12юз019041 0.0 102421
10:00−5юв008196 0.0 1020120
13:00−1з6136798 0.0 10181484
16:00−1з51077100 0.0 10171255
19:00−6з41092100 0.6 1018726
22:00−8зюз31091100 0.7 1021822